モンターニ彗星

314P/Montani (2016)

English version
Home page
Updated on February 8, 2021

---------------------------------------------------------------------

・ プロフィール

符号 314P/2014 U1
検出日 2014年10月21日
検出光度 20.4等
検出者 G. V. Williams, T. H. Bressi and A. F. Tubbiolo (Spacewatch, Kitt Peak)

・ 写真集

・ 軌道要素

Epoch 2016 Oct. 19.0 TT = JDT 2457680.5
T 2016 Oct. 7.86417 TT                                  MPCW
q   4.2337646            (2000.0)            P               Q
n   0.05037361     Peri.  213.74136     -0.52035278     -0.85113262
a   7.2610704      Node   267.70434     +0.79801651     -0.45576513
e   0.4169228      Incl.    3.97854     +0.30397801     -0.26048305
P  19.57
From 358 observations 1997 Apr. 9-2017 May 17, mean residual 0".5.

・ 光度変化

        m1 = 9.0 + 5 logΔ + 10.0 log r

---------------------------------------------------------------------

軌道要素はM.P.E.C. 2017-L52に掲載されたものです。
光度グラフはComet for Windowsで作成したものです。

---------------------------------------------------------------------

Copyright(C) Seiichi Yoshida (comet@aerith.net). All rights reserved.